Rogers City, MI

4:12 AM EDT on October 19, 2017 (GMT -0400)
Presque Isle County

Weather History for KPZQ - March, 2013

Change the Weather History Date:

Thursday, March 7, 2013

  Actual Average (KAPN) Record (KAPN)
Temperature  
Mean Temperature 28 °F -  
Max Temperature 31 °F 34 °F 73 °F (2000)
Min Temperature 24 °F 13 °F -12 °F (1967)
Degree Days  
Heating Degree Days 38    
Moisture  
Dew Point 22 °F    
Average Humidity 78    
Maximum Humidity 92    
Minimum Humidity 65    
Precipitation  
Precipitation 0.00 in - - ()
Sea Level Pressure  
Sea Level Pressure 30.32 in    
Wind  
Wind Speed 9 mph (WNW)    
Max Wind Speed 14 mph    
Max Gust Speed 20 mph    
Visibility 9 miles    
Events Snow    
Averages and records for this station are not official NWS values.
T = Trace of Precipitation, MM = Missing Value Source: NWS Daily Summary

Daily Weather History Graph

Daily Weather History Graph

Search for Another Location

Airport or City:

Trip Planner

Search our weather history database for the weather conditions in past years. The results will help you decide how hot, cold, wet, or windy it might be!

Date:

Astronomy

Mar. 07, 2013 Rise Set
Actual Time 7:02 AM EST 6:30 PM EST
Civil Twilight 6:32 AM EST 7:00 PM EST
Nautical Twilight 5:58 AM EST 7:34 PM EST
Astronomical Twilight 5:24 AM EST 8:09 PM EST
Moon 4:11 AM EST (3/7) 2:07 PM EST (3/7)
Length of Visible Light 12h 27m
Length of Day
11h 28m
Waning Crescent, 20% of the Moon is Illuminated
Mar 7
Waning Crescent
Mar 11
New
Mar 19
First Quarter
Mar 27
Full
Apr 3
Last Quarter

Hourly Weather History & Observations

Time (EST) Temp. Windchill Dew Point Humidity Pressure Visibility Wind Dir Wind Speed Gust Speed Precip Events Conditions
12:15 AM 29.8 °F 20.9 °F 27.5 °F 91% 30.22 in 2.5 mi NW 10.4 mph - N/A Snow Light Snow
12:35 AM 29.8 °F 20.9 °F 27.5 °F 91% 30.22 in 3.0 mi NW 10.4 mph - N/A Snow Light Snow
12:55 AM 29.3 °F 21.5 °F 27.3 °F 92% 30.22 in 1.5 mi NW 8.1 mph - N/A Snow Light Snow
1:15 AM 29.3 °F 19.6 °F 27.1 °F 92% 30.22 in 1.2 mi NW 11.5 mph 19.6 mph N/A Snow Light Snow
1:35 AM 28.8 °F 20.9 °F 26.6 °F 92% 30.23 in 1.5 mi NW 8.1 mph - N/A Snow Light Snow
1:55 AM 28.4 °F 17.5 °F 25.7 °F 90% 30.24 in 2.5 mi NW 13.8 mph 17.3 mph N/A Snow Light Snow
2:15 AM 27.9 °F 17.8 °F 24.6 °F 88% 30.24 in 7.0 mi NW 11.5 mph 17.3 mph N/A Snow Light Snow
2:35 AM 27.9 °F 19.1 °F 24.3 °F 86% 30.25 in 5.0 mi NW 9.2 mph 17.3 mph N/A Snow Light Snow
2:55 AM 27.5 °F 18.0 °F 23.9 °F 86% 30.25 in 7.0 mi WNW 10.4 mph 16.1 mph N/A Snow Light Snow
3:15 AM 27.3 °F 18.4 °F 23.7 °F 86% 30.25 in 5.0 mi NW 9.2 mph 16.1 mph N/A Snow Light Snow
3:35 AM 27.1 °F 18.9 °F 23.7 °F 87% 30.25 in 5.0 mi WNW 8.1 mph - N/A Snow Light Snow
3:55 AM 27.0 °F 18.7 °F 23.5 °F 87% 30.26 in 3.0 mi WNW 8.1 mph - N/A Snow Light Snow
4:15 AM 26.4 °F 18.0 °F 23.4 °F 88% 30.26 in 2.5 mi WNW 8.1 mph - N/A Snow Light Snow
4:35 AM 26.4 °F 18.0 °F 23.0 °F 87% 30.26 in 5.0 mi WNW 8.1 mph - N/A Snow Light Snow
4:55 AM 26.1 °F 17.6 °F 22.8 °F 88% 30.26 in 7.0 mi WNW 8.1 mph - N/A Snow Light Snow
5:15 AM 25.7 °F 16.4 °F 22.1 °F 86% 30.27 in 10.0 mi WNW 9.2 mph - N/A   Overcast
5:35 AM 25.3 °F 18.5 °F 21.7 °F 86% 30.27 in 10.0 mi WNW 5.8 mph - N/A   Overcast
5:55 AM 25.0 °F 18.1 °F 21.6 °F 87% 30.27 in 10.0 mi WNW 5.8 mph - N/A   Overcast
6:15 AM 25.2 °F 16.5 °F 21.6 °F 86% 30.28 in 10.0 mi West 8.1 mph - N/A   Overcast
6:35 AM 24.8 °F 17.9 °F 21.2 °F 86% 30.28 in 10.0 mi WNW 5.8 mph - N/A   Overcast
6:55 AM 24.8 °F 16.1 °F 21.0 °F 86% 30.29 in 10.0 mi WNW 8.1 mph - N/A   Overcast
7:15 AM 24.8 °F 16.9 °F 20.7 °F 84% 30.29 in 10.0 mi West 6.9 mph - N/A   Overcast
7:35 AM 24.8 °F 15.3 °F 20.3 °F 83% 30.30 in 10.0 mi WNW 9.2 mph - N/A   Overcast
7:55 AM 24.8 °F 15.3 °F 20.3 °F 83% 30.31 in 10.0 mi WNW 9.2 mph - N/A   Overcast
8:15 AM 24.8 °F 14.6 °F 20.3 °F 83% 30.31 in 10.0 mi West 10.4 mph - N/A   Overcast
8:35 AM 25.2 °F 15.7 °F 20.3 °F 82% 30.32 in 10.0 mi WNW 9.2 mph - N/A   Overcast
8:55 AM 25.7 °F 16.4 °F 20.3 °F 80% 30.32 in 10.0 mi West 9.2 mph - N/A   Overcast
9:15 AM 26.2 °F 17.1 °F 20.3 °F 78% 30.32 in 10.0 mi WNW 9.2 mph - N/A   Mostly Cloudy
9:35 AM 27.0 °F 17.3 °F 20.3 °F 76% 30.33 in 10.0 mi WNW 10.4 mph 17.3 mph N/A   Overcast
9:55 AM 27.3 °F 16.6 °F 19.8 °F 73% 30.33 in 10.0 mi WNW 12.7 mph 19.6 mph N/A   Overcast
10:15 AM 27.9 °F 17.8 °F 19.4 °F 71% 30.33 in 10.0 mi West 11.5 mph 17.3 mph N/A   Overcast
10:35 AM 27.9 °F 19.1 °F 19.4 °F 71% 30.33 in 10.0 mi WNW 9.2 mph - N/A   Overcast
10:55 AM 28.6 °F 20.7 °F 19.8 °F 70% 30.34 in 10.0 mi NW 8.1 mph - N/A   Overcast
11:15 AM 28.6 °F 17.7 °F 19.6 °F 69% 30.33 in 10.0 mi NW 13.8 mph 17.3 mph N/A   Overcast
11:35 AM 29.1 °F 20.0 °F 19.6 °F 68% 30.34 in 10.0 mi NW 10.4 mph 16.1 mph N/A   Overcast
11:55 AM 30.2 °F 19.8 °F 20.3 °F 67% 30.34 in 10.0 mi WNW 13.8 mph 19.6 mph N/A   Mostly Cloudy
12:15 PM 30.9 °F 22.8 °F 20.3 °F 65% 30.34 in 10.0 mi NW 9.2 mph - N/A   Mostly Cloudy
12:35 PM 30.4 °F 22.2 °F 21.0 °F 68% 30.34 in 10.0 mi WNW 9.2 mph - N/A   Overcast
12:55 PM 30.9 °F 21.7 °F 21.0 °F 67% 30.34 in 10.0 mi NW 11.5 mph 17.3 mph N/A   Overcast
1:15 PM 31.6 °F 22.6 °F 21.2 °F 65% 30.34 in 10.0 mi NW 11.5 mph - N/A   Overcast
1:35 PM 31.3 °F 22.7 °F 21.2 °F 66% 30.33 in 10.0 mi NW 10.4 mph - N/A   Overcast
1:55 PM 29.7 °F 19.1 °F 21.4 °F 71% 30.33 in 10.0 mi NW 13.8 mph - N/A   Mostly Cloudy
2:15 PM 30.2 °F 21.9 °F 21.2 °F 69% 30.34 in 10.0 mi NW 9.2 mph 16.1 mph N/A   Scattered Clouds
2:35 PM 31.8 °F 22.3 °F 21.7 °F 66% 30.34 in 10.0 mi NW 12.7 mph - N/A   Mostly Cloudy
2:55 PM 31.3 °F 23.3 °F 22.1 °F 69% 30.34 in 10.0 mi WNW 9.2 mph - N/A   Overcast
3:15 PM 31.3 °F 23.3 °F 22.3 °F 69% 30.34 in 10.0 mi NW 9.2 mph - N/A   Overcast
3:35 PM 31.1 °F 22.4 °F 22.5 °F 70% 30.35 in 10.0 mi WNW 10.4 mph - N/A   Overcast
3:55 PM 31.1 °F 21.9 °F 22.5 °F 70% 30.35 in 10.0 mi WNW 11.5 mph - N/A   Overcast
4:15 PM 30.9 °F 22.2 °F 22.3 °F 70% 30.35 in 10.0 mi NW 10.4 mph - N/A   Overcast
4:35 PM 30.9 °F 23.5 °F 22.3 °F 70% 30.35 in 10.0 mi NW 8.1 mph - N/A   Overcast
4:55 PM 30.9 °F 22.8 °F 22.1 °F 70% 30.36 in 10.0 mi NW 9.2 mph - N/A   Overcast
5:15 PM 30.9 °F 23.5 °F 22.1 °F 70% 30.36 in 10.0 mi WNW 8.1 mph - N/A   Overcast
5:35 PM 30.7 °F 22.6 °F 22.3 °F 71% 30.37 in 10.0 mi WNW 9.2 mph - N/A   Overcast
5:55 PM 30.7 °F 22.6 °F 22.3 °F 71% 30.38 in 10.0 mi WNW 9.2 mph - N/A   Overcast
6:15 PM 30.7 °F 24.1 °F 22.5 °F 71% 30.38 in 10.0 mi WNW 6.9 mph - N/A   Overcast
6:35 PM 30.6 °F 23.1 °F 22.5 °F 72% 30.38 in 10.0 mi WNW 8.1 mph - N/A   Overcast
6:55 PM 30.7 °F 24.9 °F 22.6 °F 72% 30.39 in 10.0 mi WNW 5.8 mph - N/A   Overcast
8:35 PM 27.9 °F 24.0 °F 20.8 °F 75% 30.40 in 10.0 mi West 3.5 mph - N/A   Clear
8:55 PM 27.3 °F 23.4 °F 20.7 °F 76% 30.40 in 10.0 mi West 3.5 mph - N/A   Clear
9:15 PM 26.6 °F 21.2 °F 20.3 °F 77% 30.40 in 10.0 mi West 4.6 mph - N/A   Clear
9:35 PM 26.4 °F 22.4 °F 20.3 °F 78% 30.40 in 10.0 mi West 3.5 mph - N/A   Clear
9:55 PM 26.1 °F 21.9 °F 20.1 °F 78% 30.40 in 10.0 mi West 3.5 mph - N/A   Clear
10:15 PM 25.7 °F 20.1 °F 19.9 °F 79% 30.41 in 10.0 mi West 4.6 mph - N/A   Clear
10:35 PM 25.3 °F 19.7 °F 19.8 °F 79% 30.40 in 10.0 mi West 4.6 mph - N/A   Clear
10:55 PM 25.2 °F 19.5 °F 19.8 °F 80% 30.40 in 10.0 mi West 4.6 mph - N/A   Clear
11:15 PM 25.3 °F 18.5 °F 20.1 °F 81% 30.41 in 10.0 mi West 5.8 mph - N/A   Clear
11:35 PM 25.2 °F 18.3 °F 20.3 °F 82% 30.41 in 10.0 mi WNW 5.8 mph - N/A   Clear
11:56 PM 25.3 °F 18.5 °F 20.7 °F 82% 30.41 in 10.0 mi WNW 5.8 mph - N/A   Clear